sat.trackr.live / text

‹ back to catalog

STARLINK-11680 [DTC]

NORAD 63554 · 2025-075G

PAYLOAD ACTIVE UNKNOWN

§ Identity

Operator
Country
US
Launch date
2025-04-13
Launch site
AFETR
Launch vehicle
Mass (kg)
RCS (m²)

Purposes: comms

External: N2YO · Heavens-Above · Gunter

§ Orbital elements

Epoch: 2026-09-19T17:24:52.402464Z

Period
91.67 min
Inclination
42.9997°
Eccentricity
0.0002141
Mean motion
15.70919039 rev/d
Perigee alt
354.8 km
Apogee alt
357.7 km
Semi-major
6,734.4 km
B*
1.3282e-3
RAAN
64.3773°
Arg perigee
272.0378°
Mean anomaly
88.0244°
Rev number
8,376

§ Raw data

STARLINK-11680 [DTC]1 63554U 25075G   26262.72560651  .00174181  00000+0  13282-2 0  99912 63554  42.9997  64.3773 0002141 272.0378  88.0244 15.70919039 83766

JSON: /api/v1/satellites/63554 · /tle

For live sub-satellite position, see the globe view (requires WebGL).

§ Visibility from observer

Set your observer location to see the next 7 days of passes ≥ 10°. The values pass through the URL so the page stays shareable.

No JS? Fill the form by hand. The geolocation button needs JavaScript.